Location: Arbon
(43.0005°N, 0.7472°E)
Time: 05:19:27
(UTC+00:00)

Courier 1B - Visible Passes

Search period start: 27 November 2020 00:00
Search period end: 07 December 2020 00:00
Orbit: 962 x 1209 km, 28.3° (Epoch: 26 November)

Date Brightness Start Highest point End Pass type
(mag) Time Alt. Az. Time Alt. Az. Time Alt. Az.
27 Nov 10.2 03:17:05 11° SSE 03:17:05 11° SSE 03:17:21 10° SSE visible
03 Dec 9.7 19:03:03 10° S 19:03:23 10° SSE 19:03:23 10° SSE visible
04 Dec 9.9 19:59:34 10° SSW 19:59:57 11° SSW 19:59:57 11° SSW visible
05 Dec 9.4 19:06:42 10° SSW 19:09:36 15° S 19:09:36 15° S visible
06 Dec 9.5 18:14:12 10° S 18:16:54 13° SSE 18:19:14 11° SE visible
06 Dec 9.8 20:05:05 10° SW 20:06:08 13° SSW 20:06:08 13° SSW visible
